Content
SEND FEEDBACK

Daily
Averages
Monthly
Summary
United States of America

QUEBRADILLAS, PUERTO RICO


Home > North America > United States > Puerto Rico
Elevation: 66 feet     Latitude: 18 24N     Longitude: 066 56W

WEATHER
 
SELECT A DAY
Number of Records: 104,655;   Date Range: 6/30/96 - 7/26/14
 
SHARE

PRINT THIS DATA

[ ← Previous Day ]
WEATHER ALMANAC - JANUARY 31, 2013
[ Next Day → ]
[ °C ]   °F
Weather ElementAverageHighLow
Temperature74.4 °F84.2 °F (11:50 am) (3:50 pm)
Dewpoint69.2 °F73.4 °F (11:50 am) (7:00 pm)
Humidity83.9 %100 % (5:50 am)70 % (10:50 am)
Barometer30.06 in30.11 in (9:50 am)30.03 in (4:50 am)
Wind Speed12 mph25.3 mph (3:50 pm)
Weather ElementAverage
Visibility9.9 mi
Wind DirectionESE (97.3 °)

Weather ElementTotal
Precipitation---
Heating Degree Days22.9 (Base 65)
Averaged from 22 records on January 31, 2013
WEATHER CONDITIONS BREAKOUT
WIND DIRECTION BREAKOUT
WEATHER BY HOUR - JANUARY 31, 2013
[ °C ]   °F
Local TimeTemperatureDewpointHumidityBarometerVisibilityWind DirectionWind SpeedGust SpeedPrecipitationEventsConditions
2:50 AM73.4 °F71.6 °F94 %30.06 in10.0 miESE (110°)6.9 mphScattered Clouds
3:50 AM73.4 °F71.6 °F94 %30.04 in7.0 miESE (120°)5.8 mphDrizzle
4:50 AM73.4 °F71.6 °F94 %30.03 in10.0 miEast (90°)6.9 mphScattered Clouds
5:50 AM71.6 °F71.6 °F100 %30.03 in10.0 miEast (100°)5.8 mphScattered Clouds
6:50 AM71.6 °F71.6 °F100 %30.05 in10.0 miESE (110°)6.9 mphScattered Clouds
7:50 AM73.4 °F71.6 °F94 %30.07 in10.0 miEast (100°)9.2 mphClear
8:50 AM77.0 °F71.6 °F83 %30.09 in10.0 miEast (100°)9.2 mphScattered Clouds
9:50 AM80.6 °F71.6 °F74 %30.11 in10.0 miEast (100°)8.1 mphClear
10:50 AM82.4 °F71.6 °F70 %30.11 in10.0 miEast (80°)16.1 mphScattered Clouds
11:50 AM84.2 °F73.4 °F70 %30.10 in10.0 miEast (80°)16.1 mphScattered Clouds
12:50 PM84.2 °F73.4 °F70 %30.08 in10.0 miENE (70°)20.7 mphScattered Clouds
1:50 PM84.2 °F73.4 °F70 %30.06 in10.0 miEast (80°)19.6 mphScattered Clouds
2:50 PM84.2 °F73.4 °F70 %30.03 in10.0 miEast (80°)19.6 mphScattered Clouds
3:50 PM0.0 °F0.0 °F30.03 in10.0 miEast (80°)25.3 mphScattered Clouds
4:50 PM80.6 °F73.4 °F79 %30.03 in10.0 miEast (90°)12.7 mphScattered Clouds
5:50 PM78.8 °F73.4 °F83 %30.03 in10.0 miEast (100°)18.4 mphScattered Clouds
6:50 PM78.8 °F73.4 °F83 %30.05 in10.0 miEast (100°)18.4 mphScattered Clouds
7:50 PM78.8 °F73.4 °F83 %30.06 in10.0 miESE (110°)8.1 mphScattered Clouds
8:50 PM78.8 °F73.4 °F83 %30.06 in10.0 miSE (130°)6.9 mphScattered Clouds
9:50 PM77.0 °F73.4 °F89 %30.08 in10.0 miEast (100°)6.9 mphScattered Clouds
10:50 PM75.2 °F71.6 °F89 %30.08 in10.0 miESE (110°)8.1 mphClear
11:50 PM75.2 °F71.6 °F89 %30.07 in10.0 miEast (100°)9.2 mphClear
Hourly data recorded from TJBQ, located miles away from Quebradillas, Puerto Rico







STORIES FROM OUR PARTNERS